Weather History for Fresno, CA

Change the Weather History Date:

Monday, January 9, 2012

  Actual Average Record
Temperature  
Mean Temperature 51 °F 46 °F  
Max Temperature 66 °F 54 °F 70 °F (1953)
Min Temperature 35 °F 38 °F 23 °F (1949)
Degree Days  
Heating Degree Days 14    
Month to date heating degree days 139  
Since 1 July heating degree days 1101  
Cooling Degree Days 0    
Month to date cooling degree days 0  
Year to date cooling degree days 0  
Moisture  
Dew Point 33 °F    
Average Humidity 56    
Maximum Humidity 82    
Minimum Humidity 29    
Precipitation  
Precipitation 0.00 in 0.07 in 0.57 in (1930)
Month to date precipitation 0.00 0.64  
Year to date precipitation 0.00 0.64  
Since 1 July precipitation 1.57 4.30  
Snow  
Snow 0.00 in - - ()
Month to date snowfall 0.0  
Since 1 July snowfall 0.0  
Snow Depth 0.00 in    
Sea Level Pressure  
Sea Level Pressure 30.23 in    
Wind  
Wind Speed 1 mph (ENE)    
Max Wind Speed 6 mph    
Max Gust Speed 16 mph    
Visibility 6 miles    
Events      
T = Trace of Precipitation, MM = Missing Value Source: NWS Daily Summary

Daily Weather History Graph

Daily Weather History Graph

Search for Another Location

Airport:

Trip Planner

Search our weather history database for the weather conditions in past years. The results will help you decide how hot, cold, wet, or windy it might be!

Date:

Astronomy

Jan. 09, 2012 Rise Set
Actual Time 7:11 AM PST 5:00 PM PST
Civil Twilight 6:43 AM PST 5:28 PM PST
Nautical Twilight 6:11 AM PST 6:00 PM PST
Astronomical Twilight 5:39 AM PST 6:32 PM PST
Moon 5:50 PM PST (1/9) 7:16 AM PST (1/9)
Length of Visible Light 10h 45m
Length of Day
9h 48m
Full, 100% of the Moon is Illuminated
Jan 9
Full
Jan 16
Last Quarter
Jan 22
New
Jan 30
First Quarter
Feb 7
Full

Hourly Weather History & Observations

Time (PST) Temp. Windchill Dew Point Humidity Pressure Visibility Wind Dir Wind Speed Gust Speed Precip Events Conditions
12:53 AM 39.9 °F 37.8 °F 32.0 °F 73% 30.26 in 5.0 mi ENE 3.5 mph - N/A   Haze
1:53 AM 37.9 °F - 30.9 °F 76% 30.26 in 6.0 mi Calm Calm - N/A   Haze
2:53 AM 37.9 °F 35.5 °F 32.0 °F 79% 30.26 in 6.0 mi NE 3.5 mph - N/A   Haze
3:53 AM 37.0 °F - 30.0 °F 76% 30.26 in 6.0 mi Calm Calm - N/A   Haze
4:53 AM 36.0 °F - 30.9 °F 82% 30.26 in 6.0 mi Calm Calm - N/A   Haze
5:53 AM 36.0 °F - 30.0 °F 79% 30.27 in 5.0 mi Calm Calm - N/A   Haze
6:53 AM 35.1 °F 32.2 °F 30.9 °F 85% 30.27 in 5.0 mi ENE 3.5 mph - N/A   Scattered Clouds
7:53 AM 37.4 °F 34.9 °F 32.0 °F 81% 30.27 in 5.0 mi East 3.5 mph - N/A   Haze
8:53 AM 44.1 °F - 34.0 °F 68% 30.28 in 5.0 mi Calm Calm - N/A   Haze
9:53 AM 50.0 °F - 35.1 °F 57% 30.28 in 5.0 mi SE 3.5 mph - N/A   Haze
10:53 AM 54.0 °F - 35.1 °F 49% 30.27 in 6.0 mi Calm Calm - N/A   Haze
11:53 AM 57.9 °F - 35.1 °F 42% 30.24 in 6.0 mi Variable 3.5 mph - N/A   Haze
12:53 PM 62.1 °F - 34.0 °F 35% 30.22 in 6.0 mi Calm Calm - N/A   Haze
1:53 PM 63.0 °F - 34.0 °F 34% 30.20 in 6.0 mi West 3.5 mph - N/A   Haze
2:53 PM 64.9 °F - 34.0 °F 32% 30.19 in 6.0 mi Calm Calm - N/A   Haze
3:53 PM 66.0 °F - 34.0 °F 30% 30.18 in 6.0 mi Calm Calm - N/A   Haze
4:53 PM 64.0 °F - 33.1 °F 31% 30.17 in 6.0 mi Calm Calm - N/A   Haze
5:53 PM 57.0 °F - 34.0 °F 42% 30.18 in 7.0 mi WSW 4.6 mph - N/A   Clear
6:53 PM 55.9 °F - 35.1 °F 45% 30.18 in 7.0 mi Calm Calm - N/A   Clear
7:53 PM 50.0 °F - 35.1 °F 57% 30.19 in 7.0 mi Calm Calm - N/A   Clear
8:53 PM 48.0 °F - 35.1 °F 61% 30.20 in 6.0 mi Calm Calm - N/A   Haze
9:53 PM 45.0 °F - 34.0 °F 65% 30.20 in 5.0 mi Calm Calm - N/A   Haze
10:53 PM 43.0 °F 41.3 °F 33.1 °F 68% 30.20 in 5.0 mi NE 3.5 mph - N/A   Haze
11:53 PM 42.1 °F - 33.1 °F 70% 30.19 in 5.0 mi Calm Calm - N/A   Haze